TimeEST,TemperatureF,Dew PointF,Humidity,Sea Level PressureIn,VisibilityMPH,Wind Direction,Wind SpeedMPH,Gust SpeedMPH,PrecipitationIn,Events,Conditions,WindDirDegrees,DateUTC
12:52 AM,12.9,10.9,92,29.74,0.2,North,-9999.0,-,0.15,Fog,Light Freezing Fog,0,2013-02-09 05:52:00
1:52 AM,15.1,12.0,88,29.74,0.2,North,9.2,26.5,0.08,Fog,Light Freezing Fog,360,2013-02-09 06:52:00
2:52 AM,16.0,14.0,92,29.74,0.2,North,12.7,24.2,0.11,Fog,Light Freezing Fog,10,2013-02-09 07:52:00
3:52 AM,17.1,14.0,88,29.73,0.5,North,8.1,-,0.11,Fog,Light Freezing Fog,360,2013-02-09 08:52:00
4:11 AM,17.6,14.0,86,29.66,0.5,Variable,6.9,16.1,0.02,Fog,Light Freezing Fog,0,2013-02-09 09:11:00
4:22 AM,17.6,14.0,86,29.66,0.5,Variable,5.8,-,0.03,Fog,Light Freezing Fog,0,2013-02-09 09:22:00
4:37 AM,15.8,14.0,93,29.67,0.5,North,9.2,-,0.05,Fog,Light Freezing Fog,360,2013-02-09 09:37:00
4:52 AM,16.0,12.9,88,29.74,0.5,North,8.1,-,0.07,Fog,Light Freezing Fog,360,2013-02-09 09:52:00
5:08 AM,15.8,12.2,86,29.67,0.8,Variable,6.9,17.3,0.01,,Mist,0,2013-02-09 10:08:00
5:27 AM,15.8,12.2,86,29.67,1.0,North,8.1,-,0.02,,Mist,360,2013-02-09 10:27:00
5:32 AM,15.8,12.2,86,29.67,1.2,NNW,9.2,24.2,0.02,,Overcast,340,2013-02-09 10:32:00
5:44 AM,15.8,12.2,86,29.67,1.5,Variable,5.8,18.4,0.02,,Overcast,0,2013-02-09 10:44:00
5:52 AM,16.0,12.0,84,29.74,1.5,Variable,5.8,-,0.02,Snow,Light Snow,0,2013-02-09 10:52:00
6:11 AM,15.8,10.4,79,29.67,1.2,Variable,6.9,18.4,0.00,Snow,Light Snow,0,2013-02-09 11:11:00
6:17 AM,15.8,10.4,79,29.68,1.0,NNW,10.4,18.4,0.01,Snow,Light Snow,340,2013-02-09 11:17:00
6:24 AM,15.8,10.4,79,29.68,0.8,Variable,4.6,16.1,0.01,Snow,Light Snow,0,2013-02-09 11:24:00
6:45 AM,14.0,10.4,86,29.69,0.8,North,9.2,-,0.02,Snow,Light Snow,350,2013-02-09 11:45:00
6:52 AM,14.0,10.9,88,29.76,0.8,Variable,6.9,-,0.02,Snow,Light Snow,0,2013-02-09 11:52:00
7:13 AM,14.0,10.4,86,29.70,0.8,North,8.1,-,0.01,Snow,Light Snow,350,2013-02-09 12:13:00
7:22 AM,14.0,10.4,86,29.70,1.0,NNW,9.2,18.4,0.01,Snow,Light Snow,340,2013-02-09 12:22:00
7:38 AM,14.0,10.4,86,29.72,0.5,NNW,10.4,17.3,0.01,Fog-Snow,Snow,340,2013-02-09 12:38:00
7:52 AM,12.9,9.0,84,29.80,0.2,Variable,5.8,19.6,0.02,Fog-Snow,Heavy Snow,0,2013-02-09 12:52:00
8:05 AM,12.2,8.6,85,29.73,0.2,Variable,5.8,23.0,0.00,Fog-Snow,Snow,0,2013-02-09 13:05:00
8:52 AM,12.0,7.0,80,29.83,0.5,North,9.2,16.1,0.01,Snow,Snow,350,2013-02-09 13:52:00
9:52 AM,10.9,7.0,84,29.85,0.5,Variable,6.9,17.3,0.01,Fog-Snow,Snow,0,2013-02-09 14:52:00
10:52 AM,12.0,7.0,80,29.88,0.5,North,10.4,18.4,0.01,Snow,Snow,10,2013-02-09 15:52:00
11:06 AM,12.2,8.6,85,29.81,0.2,North,11.5,21.9,0.00,Fog-Snow,Snow,360,2013-02-09 16:06:00
11:52 AM,12.0,8.1,84,29.90,0.2,Variable,5.8,21.9,0.01,Fog-Snow,Snow,0,2013-02-09 16:52:00
12:11 PM,12.2,6.8,79,29.82,0.5,Variable,6.9,23.0,0.00,Snow,Snow,0,2013-02-09 17:11:00
12:22 PM,12.2,6.8,79,29.83,1.0,Variable,6.9,24.2,0.00,Snow,Light Snow,0,2013-02-09 17:22:00
12:29 PM,14.0,6.8,73,29.83,1.5,NNW,12.7,24.2,0.00,Snow,Light Snow,340,2013-02-09 17:29:00
12:36 PM,14.0,6.8,73,29.83,3.0,Variable,6.9,21.9,0.00,Snow,Light Snow,0,2013-02-09 17:36:00
12:43 PM,14.0,6.8,73,29.84,1.8,NNW,10.4,20.7,0.00,Snow,Light Snow,340,2013-02-09 17:43:00
12:50 PM,14.0,6.8,73,29.84,1.0,North,8.1,26.5,0.00,Snow,Light Snow,350,2013-02-09 17:50:00
12:52 PM,14.0,8.1,77,29.91,1.0,NNW,9.2,26.5,0.00,Snow,Light Snow,330,2013-02-09 17:52:00
1:02 PM,15.8,8.6,73,29.84,1.2,NNW,10.4,24.2,0.00,Snow,Light Snow,340,2013-02-09 18:02:00
1:12 PM,15.8,8.6,73,29.84,2.0,NNW,9.2,17.3,0.00,Snow,Light Snow,340,2013-02-09 18:12:00
1:23 PM,17.6,6.8,63,29.84,5.0,North,9.2,18.4,0.00,Snow,Light Snow,10,2013-02-09 18:23:00
1:52 PM,18.0,6.1,60,29.94,7.0,NNW,11.5,24.2,0.00,,Overcast,340,2013-02-09 18:52:00
2:52 PM,19.0,6.1,57,29.97,10.0,North,11.5,21.9,0.00,,Overcast,350,2013-02-09 19:52:00
3:52 PM,19.0,5.0,54,30.01,8.0,NNW,8.1,26.5,0.00,,Mostly Cloudy,340,2013-02-09 20:52:00
4:52 PM,17.1,3.9,56,30.04,6.0,NNW,12.7,26.5,0.00,,Clear,340,2013-02-09 21:52:00
5:52 PM,15.1,1.9,56,30.10,10.0,North,8.1,25.3,0.00,,Clear,350,2013-02-09 22:52:00
6:52 PM,12.9,1.0,59,30.14,10.0,Variable,5.8,18.4,0.00,,Clear,0,2013-02-09 23:52:00
7:52 PM,10.9,-0.0,61,30.17,10.0,NNW,8.1,18.4,N/A,,Clear,330,2013-02-10 00:52:00
8:52 PM,10.9,-0.9,59,30.20,10.0,Variable,6.9,-,0.00,,Clear,0,2013-02-10 01:52:00
9:52 PM,10.0,-2.0,58,30.22,10.0,NNW,8.1,-,N/A,,Clear,330,2013-02-10 02:52:00
10:52 PM,10.9,-2.9,54,30.23,10.0,Variable,4.6,-,N/A,,Clear,0,2013-02-10 03:52:00
11:52 PM,12.0,-4.0,49,30.25,10.0,NNW,5.8,-,N/A,,Clear,340,2013-02-10 04:52:00